Flag for Cook Islands Weather past 2 weeks in Rarotonga, Cook Islands

Now
73 °F

Sprinkles. Overcast.


Feels Like: 70 °F
Forecast: 71 / 79 °F
Wind: 1 mph from South

Location: Rarotonga

Current Time: Apr 27, 2015 at 12:07:09 AM

Latest Report: Apr 26, 2015 at 11:00 PM


Visibility: N/A

Pressure: 29.92 "Hg

Humidity: 94%

Dew point: 72 °F

Location of RarotongaLocation

Historic Weather in Rarotonga — Graph

°F

Rarotonga temperature yesterday

Maximum temperature yesterday: 81 °F (at 12:00 AM)
Minimum temperature yesterday: 73 °F (at 5:00 PM)
Average temperature yesterday: 78 °F

Past Weeks' High & Low Weather Summary

 TemperatureHumidityPressure
High86 °F (Apr 17, 2:00 PM)94% (Apr 12, 1:00 AM)30.07 "Hg (Apr 12, 1:00 AM)
Low70 °F (Apr 12, 5:00 AM)58% (Apr 17, 1:00 PM)29.68 "Hg (Apr 12, 12:00 PM)
Average78 °F84%29.91 "Hg
* Reported Apr 11 11:00 PM — Apr 26 11:00 PM, Rarotonga, Weather by CustomWeather, © 2015

Note: Actual official high and low records may vary slightly from our data, if they occured in-between our weather recording intervals... More about our weather records

Advertising

Rarotonga weather history for previous 24 hours

 ConditionsComfort  
Time TempWeatherWind HumidityBarometerVisibility
11:00 PM
Sun, Apr 26
73 °FSprinkles. Overcast.1 mph94%29.92 "HgN/A
10:00 PM73 °FSprinkles. Overcast.3 mph94%29.92 "HgN/A
9:00 PM73 °FSprinkles. Overcast.1 mph94%29.92 "HgN/A
8:00 PM73 °FSprinkles. Partly cloudy.1 mph94%29.89 "HgN/A
7:00 PM73 °FPartly cloudy.3 mph94%29.89 "HgN/A
6:00 PM73 °FScattered clouds.1 mph94%29.86 "HgN/A
5:00 PM73 °FSprinkles. Broken clouds.13 mph94%29.86 "HgN/A
4:00 PM79 °FPartly sunny.9 mph89%29.86 "HgN/A
3:00 PM79 °FPartly sunny.12 mph89%29.86 "HgN/A
2:00 PM79 °FDrizzle. Partly sunny.10 mph89%29.86 "HgN/A
1:00 PM79 °FDrizzle. Partly sunny.10 mph89%29.89 "HgN/A
12:00 PM79 °FDrizzle. Partly sunny.10 mph89%29.92 "HgN/A
11:00 AM79 °FBroken clouds.10 mph89%29.95 "HgN/A
10:00 AM79 °FBroken clouds.12 mph89%29.95 "HgN/A
9:00 AM79 °FSprinkles. More clouds than sun.10 mph94%29.95 "HgN/A
8:00 AM79 °FSprinkles. Scattered clouds.14 mph94%29.92 "HgN/A
7:00 AM79 °FSprinkles. Scattered clouds.10 mph94%29.89 "HgN/A
6:00 AM79 °FSprinkles. Passing clouds.12 mph94%29.89 "HgN/A
5:00 AM79 °FScattered showers. Passing clouds.13 mph94%29.89 "HgN/A
4:00 AM81 °FPassing clouds.13 mph89%29.89 "HgN/A
3:00 AM81 °FPassing clouds.13 mph89%29.89 "HgN/A
2:00 AM81 °FPassing clouds.13 mph89%29.89 "HgN/A
1:00 AM81 °FPassing clouds.7 mph89%29.92 "HgN/A
12:00 AM81 °FPassing clouds.9 mph89%29.92 "HgN/A
Weather by CustomWeather, © 2015

See weather overviewHow to use our weather pages